Starlink 6108

operational
NORAD ID: 57155 Int'l Des: 2023-090 Owner: SPXS Country: US Constellation: starlink
LEOCIRCULAR

Starlink 6108について

説明を読み込み中...

リアルタイム位置

3D地球を読み込み中...

次回通過

高度履歴

Altitude vs Time

uPlot chart will show altitude changes over time

軌道要素

1 57155U 23090BG 25303.83668404 .00005351 00000-0 41115-3 0 9998
2 57155 43.0063 246.9074 0001115 264.4384 95.6332 15.02509287131037
Epoch: Oct 30, 2025 • Age: 9 hours

現在のステータス

高度 571.4 km
速度 7.58 km/s
衛星直下点 -42.39°S, 23.67°E
打ち上げ日 Jun 23, 2023
運用期間 2.3 years
タイプ internet

技術仕様

分類 Payload
質量 305.00 kg
乾燥質量 290.00 kg
総質量 305.00 kg
長さ 0.20 m
直径 2.80 m
スパン 9.00 m
形状 Box + pan
製造者 SPXS
バスタイプ Starlink
フェーズステータス In Orbit
所有者/国 SPXS/US

大規模コンステレーション

Loading constellations...